カタログに戻る

SCOUT A DEB

運用中PO
NORAD 2386·DEBRIS·🇺🇸 United States

打ち上げ Mar 26, 1966 から Vandenberg Space Force Base

Loading…

次のパス (今後24時間)

TLE

最新Source: Space-Track

元期: Sep 14, 2026, 04:02 UTC

1 02386U 66024D   26257.16840187  .00000193  00000-0  15981-3 0  9994
2 02386  90.0403 331.6662 0129849  66.0022 295.4677 13.81656342334237

AllMySatでSCOUT A DEBをリアルタイム追跡

Download on the App Store